Weather History for Douglas, WY

Change the Weather History Date:

Sunday, November 11, 2012

  Actual Average Record
Temperature  
Mean Temperature 18 °F 35 °F  
Max Temperature 27 °F 49 °F 68 °F (1999)
Min Temperature 9 °F 22 °F -12 °F (2000)
Degree Days  
Heating Degree Days 47 30  
Month to date heating degree days 227 300  
Since 1 July heating degree days 997 1167  
Cooling Degree Days 0 0  
Month to date cooling degree days 0 0  
Year to date cooling degree days 831 486  
Moisture  
Dew Point 7 °F    
Average Humidity 61    
Maximum Humidity 76    
Minimum Humidity 46    
Precipitation  
Precipitation 0.00 in 0.02 in 0.04 in (2002)
Month to date precipitation 0.02 0.29  
Year to date precipitation 5.10 12.63  
Sea Level Pressure  
Sea Level Pressure 30.06 in    
Wind  
Wind Speed 8 mph (NW)    
Max Wind Speed 22 mph    
Max Gust Speed 31 mph    
T = Trace of Precipitation, MM = Missing Value Source: NWS Daily Summary

Daily Weather History Graph

Daily Weather History Graph

Search for Another Location

Airport:

Trip Planner

Search our weather history database for the weather conditions in past years. The results will help you decide how hot, cold, wet, or windy it might be!

Date:

Astronomy

Nov. 11, 2012 Rise Set
Actual Time 6:49 AM MST 4:41 PM MST
Civil Twilight 6:18 AM MST 5:11 PM MST
Nautical Twilight 5:44 AM MST 5:45 PM MST
Astronomical Twilight 5:11 AM MST 6:19 PM MST
Moon 4:03 AM MST (11/11) 3:09 PM MST (11/11)
Length of Visible Light 10h 53m
Length of Day
9h 52m
Waning Crescent, 7% of the Moon is Illuminated
Nov 11
Waning Crescent
Nov 13
New
Nov 20
First Quarter
Nov 28
Full
Dec 6
Last Quarter

Hourly Weather History & Observations

Time (MST) Temp. Windchill Dew Point Humidity Pressure Visibility Wind Dir Wind Speed Gust Speed Precip Events Conditions
12:02 AM - - - N/A% 29.87 in - NW 4.6 mph - N/A   Scattered Clouds
12:53 AM - - - N/A% 29.87 in - NW 8.1 mph - N/A   Clear
1:53 AM - - - N/A% 29.88 in - NNW 5.8 mph - N/A   Scattered Clouds
2:53 AM - - - N/A% 29.88 in - NNW 9.2 mph - N/A   Clear
3:53 AM - - - N/A% 29.89 in - NW 5.8 mph - N/A   Clear
4:53 AM - - - N/A% 29.90 in - Calm Calm - N/A   Clear
5:53 AM - - - N/A% 29.91 in - NNW 8.1 mph - N/A   Clear
7:53 AM 9.0 °F 2.4 °F 1.9 °F 73% 30.17 in - South 3.5 mph - N/A   Clear
9:53 AM 15.1 °F 9.4 °F 8.1 °F 74% 29.97 in - SE 3.5 mph - N/A   Clear
11:53 AM 26.1 °F 13.1 °F 12.0 °F 55% 30.11 in - WNW 17.3 mph 25.3 mph 0.01 in   Clear
12:53 PM 26.1 °F 11.6 °F 10.0 °F 51% 29.95 in - WNW 21.9 mph 31.1 mph N/A   Clear
1:53 PM 27.0 °F 12.8 °F 9.0 °F 47% 29.96 in - WNW 21.9 mph 28.8 mph N/A   Clear
2:53 PM 26.1 °F 11.6 °F 10.0 °F 51% 29.99 in - WNW 21.9 mph 28.8 mph N/A   Clear
3:53 PM 24.1 °F 10.1 °F 9.0 °F 53% 30.01 in - WNW 18.4 mph - N/A   Clear
4:53 PM 19.0 °F 11.1 °F 9.0 °F 65% 30.04 in - NW 5.8 mph - N/A   Clear
5:53 PM 14.0 °F 3.9 °F 6.1 °F 71% 30.07 in - NNW 6.9 mph - N/A   Clear
6:53 PM 12.0 °F 5.9 °F 6.1 °F 77% 30.08 in - NW 3.5 mph - N/A   Clear
7:53 PM 12.0 °F 5.9 °F 6.1 °F 77% 30.32 in - West 3.5 mph - N/A   Partly Cloudy
8:53 PM 12.0 °F 4.1 °F 6.1 °F 77% 30.34 in - NNW 4.6 mph - N/A   Scattered Clouds
9:53 PM 10.9 °F - 3.9 °F 73% 30.35 in - Calm Calm - N/A   Clear
10:53 PM 10.9 °F 4.7 °F 3.0 °F 70% 30.34 in - SW 3.5 mph - N/A   Clear
11:53 PM 10.9 °F 0.2 °F 5.0 °F 77% 30.32 in - WNW 6.9 mph - N/A   Clear